Regional Weather Roundup
Issued by NWS

Home | Current Version | Previous Version | Graphics & Text | Print | Product List | Glossary On
Versions: 1 2 3 4 5 6 7 8 9 10 11 12 13 14 15 16 17 18 19 20 21 22 23 24 25 26 27 28 29 30 31 32 33 34 35 36 37 38 39 40 41 42 43 44 45 46 47 48 49 50
000
ASUS45 KSLC 040310
RWRUT

UTAH REGIONAL WEATHER ROUNDUP
NATIONAL WEATHER SERVICE SALT LAKE CITY UT
800 PM MST TUE MAR 03 2015

UTZ001>011-023>025-040400-

NORTHERN UTAH

CITY           SKY/WX    TMP DP  RH WIND       PRES   REMARKS
BRIGHAM CITY   PTCLDY    33  17  51 CALM      29.97R
HILL AFB       CLOUDY    31  20  63 W2        29.95R
LOGAN          CLEAR     31  20  63 S5        29.96R WCI  26
OGDEN          CLOUDY    31  22  69 W3        29.95R
PROVO AIRPORT  PTCLDY   N/A N/A N/A NW12      29.95R
SALT LAKE CITY MOCLDY    32  26  78 SW3       29.96R
VERNAL         CLOUDY    31  26  82 NE6       29.81R WCI  25
WENDOVER       CLEAR     34  10  37 NW6       29.99R WCI  29
HEBER CITY     PTCLDY    25  14  63 E10       29.90S WCI  15
WEST JORDAN    CLOUDY    30  25  80 CALM      29.97R

$$

UTZ012>022-026-027-040400-

SOUTHERN/CENTRAL UTAH

CITY           SKY/WX    TMP DP  RH WIND       PRES   REMARKS
BLANDING       PTCLDY    32  29  88 CALM      29.90R
BRYCE CANYON   PTCLDY    20  16  84 NW12      29.86R WCI   8
CEDAR CITY     CLOUDY    28  24  85 N13       29.91R WCI  17
DELTA          PTCLDY    30  23  75 N7        29.97R WCI  23
HANKSVILLE     MOCLDY    37  21  52 NW8G20    29.88R WCI  31
MILFORD        CLOUDY    26  23  88 NW7       29.95R WCI  18
MOAB/CYNLANDS  CLEAR     32  32 100 SE5       29.83R WCI  27
PRICE          CLEAR     27  14  58 NW7       29.85R WCI  19
ST GEORGE      PTCLDY    41  34  75 S6        29.94R
KANAB          CLOUDY    34  34 100 S3        29.92R

$$

REGIONAL REPORTS     COLORADO/ARIZONA

CITY           SKY/WX    TMP DP  RH WIND       PRES   REMARKS
CRAIG, CO        N/A     22  15  75 CALM      29.82R
GRAND JUNCTION LGT SNOW  30  30 100 N6        29.83R FOG     WCI  24
RIFLE          LGT SNOW  31  28  89 W12       29.80R FOG     WCI  22
MONTROSE       CLOUDY    33  29  85 N10       29.82R WCI  25
CORTEZ         PTCLDY    32  29  88 NW3       29.85R
PAGE, AZ       PTCLDY    41  28  60 W7        29.87R
GRAND CANYON   CLEAR     24  22  91 CALM      29.89R
KINGMAN        PTCLDY    42  36  79 E7        29.91R
FLAGSTAFF      NOT AVBL

$$

REGIONAL REPORTS    NEVADA/IDAHO/WYOMING

CITY           SKY/WX    TMP DP  RH WIND       PRES   REMARKS
LAS VEGAS, NV  MOCLDY    54  34  46 NE6       29.87R
ELY            PTCLDY    20  12  71 W9        29.97R WCI   9
ELKO           CLEAR     27  16  63 S3        30.02R
POCATELLO, ID  PTCLDY    22  14  71 S3        29.94F
BURLEY         MIX PCPN  31  14  49 W13       29.94R WCI  21
EVANSTON, WY   MOCLDY    13   8  81 W8        29.87R WCI   2
ROCK SPRINGS   PTCLDY     9   4  80 CALM      29.82R

$$


USA.gov is the U.S. government's official web portal to all federal, state and local government web resources and services.